Location: Caltech
(34.1382°N, 118.1253°W)
Time: 18:34:30
(UTC-08:00)

JAS-1B - Visible Passes

Search period start: 12 February 2016 00:00
Search period end: 22 February 2016 00:00
Orbit: 911 x 1744 km, 99.0° (Epoch: 11 February)

Date Brightness Start Highest point End Pass type
(mag) Time Alt. Az. Time Alt. Az. Time Alt. Az.
12 Feb 8.3 20:09:31 39° S 20:09:31 39° S 20:14:32 10° S visible
13 Feb 9.1 18:36:05 13° ESE 18:36:05 13° ESE 18:38:19 10° ESE visible
13 Feb 8.3 20:28:17 44° SSW 20:28:17 44° SSW 20:33:39 10° SSW visible
13 Feb10.322:20:31W22:20:31W22:08:20NNWvisible
14 Feb 8.7 18:54:47 21° ESE 18:54:47 21° ESE 18:59:33 10° SE visible
14 Feb 8.4 20:46:59 43° SW 20:46:59 43° SW 20:52:31 10° SSW visible
15 Feb 8.3 19:13:24 30° ESE 19:13:24 30° ESE 19:19:55 10° SSE visible
15 Feb 8.7 21:05:35 38° WSW 21:05:35 38° WSW 21:11:08 10° SW visible
16 Feb 9.6 05:52:51 10° E 05:55:14 13° ENE 05:57:35 10° NE visible
16 Feb 7.9 19:31:47 43° E 19:31:50 43° E 19:39:50 10° S visible
16 Feb 9.0 21:16:02 10° N 21:23:58 31° W 21:29:28 10° SW visible
17 Feb 9.4 06:10:01 10° ESE 06:13:59 19° ENE 06:17:53 10° NNE visible
17 Feb 7.6 19:43:45 10° NNE 19:50:53 59° ESE 19:59:24 10° S visible
17 Feb 9.3 21:35:33 10° NNW 21:41:53 25° WNW 21:47:28 10° WSW visible
18 Feb 9.1 18:16:32 10° ENE 18:19:00 12° E 18:21:33 10° ESE visible
18 Feb 7.5 20:02:37 10° NNE 20:09:55 80° ESE 20:18:40 10° S visible
18 Feb 9.6 21:55:22 10° NNW 21:59:58 18° WNW 22:05:02 10° WSW visible
19 Feb 8.8 18:33:13 10° NE 18:38:12 18° E 18:43:38 10° SE visible
19 Feb 7.7 20:21:37 10° N 20:28:56 78° WNW 20:37:42 10° SSW visible
19 Feb 10.0 22:15:47 10° NW 22:18:44 13° WNW 22:21:50 10° W visible
20 Feb 8.5 18:51:08 10° NE 18:57:20 26° E 19:04:20 10° SSE visible
20 Feb 8.1 20:40:44 10° N 20:47:55 58° WNW 20:56:29 10° SSW visible
21 Feb 8.2 19:09:29 10° NE 19:16:27 36° E 19:24:27 10° SSE visible
21 Feb 8.6 20:59:59 10° N 21:06:53 43° WNW 21:14:59 10° SW visible
